CW9009 Weather Reports


Display with metric or nautical units.
time (UTC)temp
F
wind
direction
speed
MPH
gust
MPH
rain 1hr
in
rain 24hr
in
rain mn
in
humidity
%
barometer
mb
20260903065442 62 0.0 0.0 0.00 0.02 0.00 69 1013.5
20260903064422 62 0.0 0.0 0.00 0.02 0.00 69 1013.4
20260903063422 62 0 0.0 0.0 0.00 0.02 0.00 69 1013.3
20260903062423 62 0.0 0.0 0.00 0.02 0.00 70 1013.2
20260903061443 62 0.0 0.0 0.00 0.02 0.00 68 1013.1
20260903060423 63 0.0 0.0 0.00 0.02 0.00 68 1013.3
20260903055423 63 0.0 0.0 0.00 0.02 0.02 68 1013.2
20260903054443 63 0.0 0.0 0.00 0.02 0.02 70 1013.1
20260903053423 63 0.0 0.0 0.00 0.02 0.02 65 1013.1
20260903052423 64 0.0 0.0 0.00 0.02 0.02 64 1013.2
20260903051504 64 285 0.0 1.0 0.00 0.02 0.02 64 1013.1
20260903050424 64 285 0.0 2.0 0.00 0.02 0.02 63 1013.0
20260903045444 65 307 1.0 2.0 0.00 0.02 0.02 63 1013.0
20260903044424 65 304 1.0 1.0 0.00 0.02 0.02 62 1012.8
20260903043424 66 341 1.0 2.0 0.00 0.02 0.02 60 1012.6
20260903042425 66 344 1.0 2.0 0.00 0.02 0.02 59 1012.5
20260903041425 67 281 1.0 3.0 0.00 0.02 0.02 58 1012.4
20260903040425 67 0.0 0.0 0.00 0.02 0.02 58 1012.3
20260903035425 67 299 0.0 1.0 0.00 0.02 0.02 57 1012.2
20260903034426 68 0.0 0.0 0.00 0.02 0.02 55 1012.2
20260903033425 69 0.0 0.0 0.00 0.02 0.02 54 1012.0
20260903032426 69 300 0.0 1.0 0.00 0.02 0.02 52 1012.0
20260903031426 70 311 1.0 1.0 0.00 0.02 0.02 47 1011.7
20260903030427 70 267 2.0 2.0 0.00 0.02 0.02 45 1011.2
20260903025427 71 270 2.0 3.0 0.00 0.02 0.02 45 1011.3
20260903024427 71 274 2.0 3.0 0.00 0.02 0.02 45 1011.2
20260903023427 71 124 1.0 2.0 0.00 0.02 0.02 45 1011.2
20260903022507 72 276 2.0 3.0 0.00 0.02 0.02 44 1011.2
20260903021427 72 272 2.0 2.0 0.00 0.02 0.02 44 1011.2
20260903020427 72 0 0.0 0.0 0.00 0.02 0.02 44 1011.2
20260903015427 73 282 1.0 2.0 0.00 0.02 0.02 43 1011.2
20260903014428 73 272 3.0 3.0 0.00 0.02 0.02 43 1011.1
20260903013428 74 295 1.0 2.0 0.00 0.02 0.02 43 1011.0
20260903012428 74 278 2.0 3.0 0.00 0.02 0.02 42 1011.1
20260903011428 75 263 2.0 2.0 0.00 0.02 0.02 42 1011.1
20260903010429 75 271 2.0 3.0 0.00 0.02 0.02 40 1011.0
20260903005429 75 267 3.0 3.0 0.00 0.02 0.02 40 1011.0
20260903004448 75 279 2.0 2.0 0.00 0.02 0.02 40 1011.0
20260903003429 76 305 1.0 2.0 0.00 0.02 0.02 40 1011.0
20260903002429 76 276 3.0 3.0 0.00 0.02 0.02 40 1011.0
20260903001429 77 283 1.0 2.0 0.00 0.02 0.02 39 1010.9
20260903000429 78 278 1.0 2.0 0.00 0.02 0.02 39 1010.9
20260902235430 78 269 2.0 3.0 0.00 0.02 0.02 39 1010.9
20260902234450 78 248 3.0 3.0 0.00 0.02 0.02 39 1010.9
20260902233430 78 289 1.0 1.0 0.00 0.02 0.02 39 1010.9
20260902232510 78 279 1.0 2.0 0.00 0.02 0.02 39 1011.0
20260902231430 78 287 0.0 1.0 0.00 0.02 0.02 40 1011.1
20260902230430 78 0.0 0.0 0.00 0.02 0.02 39 1011.0
20260902225430 78 264 1.0 1.0 0.00 0.02 0.02 39 1011.2
20260902224416 79 273 2.0 3.0 0.00 0.02 0.02 38 1011.2
20260902223416 79 272 2.0 3.0 0.00 0.02 0.02 38 1011.2
20260902222431 80 255 1.0 2.0 0.00 0.02 0.02 39 1011.2
20260902221431 80 0 0.0 0.0 0.00 0.02 0.02 39 1011.2
20260902220431 79 269 1.0 3.0 0.00 0.02 0.02 40 1011.4
20260902215417 79 275 3.0 4.0 0.00 0.02 0.02 38 1011.4
20260902214438 79 0.0 0.0 0.00 0.02 0.02 39 1011.4
20260902213417 79 276 2.0 3.0 0.00 0.02 0.02 39 1011.5
20260902212418 78 251 1.0 2.0 0.00 0.02 0.02 39 1011.5
20260902211433 78 270 2.0 3.0 0.00 0.02 0.02 39 1011.5
20260902210433 78 271 3.0 4.0 0.00 0.02 0.02 40 1011.7
20260902205418 78 261 4.0 5.0 0.00 0.02 0.02 40 1011.7
20260902204418 77 269 2.0 3.0 0.00 0.02 0.02 40 1011.8
20260902203418 78 291 1.0 2.0 0.00 0.02 0.02 42 1011.7
20260902202418 77 251 1.0 2.0 0.00 0.02 0.02 40 1011.7
20260902201418 77 285 2.0 3.0 0.00 0.02 0.02 39 1011.7
20260902200419 76 268 2.0 4.0 0.00 0.02 0.02 40 1011.7
20260902195419 76 263 3.0 4.0 0.00 0.02 0.02 38 1011.8
20260902194419 76 251 2.0 2.0 0.00 0.02 0.02 39 1011.8
20260902193419 76 269 3.0 4.0 0.00 0.02 0.02 38 1012.0
20260902192419 75 259 2.0 3.0 0.00 0.02 0.02 40 1012.0
20260902191420 75 265 3.0 4.0 0.00 0.02 0.02 40 1012.0
20260902190419 75 260 2.0 3.0 0.00 0.02 0.02 40 1012.0
20260902185420 74 276 3.0 4.0 0.00 0.02 0.02 42 1012.0
20260902184420 73 279 2.0 4.0 0.00 0.02 0.02 42 1012.1
20260902183420 73 252 4.0 6.0 0.00 0.02 0.02 42 1012.3
20260902182420 73 296 2.0 3.0 0.00 0.02 0.02 42 1012.3
20260902181420 72 277 3.0 3.0 0.00 0.03 0.02 40 1012.4
20260902180421 72 245 1.0 2.0 0.00 0.03 0.02 42 1012.4
20260902175421 71 260 2.0 2.0 0.00 0.03 0.02 42 1012.4
20260902174421 71 281 2.0 2.0 0.00 0.03 0.02 42 1012.6
20260902173421 71 251 2.0 3.0 0.00 0.03 0.02 44 1012.5
20260902172421 70 259 2.0 3.0 0.00 0.03 0.02 44 1012.4
20260902171421 69 269 3.0 4.0 0.00 0.03 0.02 45 1012.4
20260902170421 68 0.0 0.0 0.00 0.03 0.02 45 1012.5
20260902165442 68 272 2.0 4.0 0.00 0.03 0.02 45 1012.4
20260902164442 68 279 2.0 3.0 0.00 0.03 0.02 45 1012.3
20260902163422 67 0 0.0 0.0 0.00 0.03 0.02 44 1012.3
20260902162422 67 261 4.0 5.0 0.00 0.03 0.02 44 1012.2
20260902161423 66 244 2.0 3.0 0.00 0.03 0.02 45 1012.2
20260902160423 66 242 1.0 2.0 0.00 0.03 0.02 47 1012.1
20260902155422 65 261 2.0 3.0 0.00 0.03 0.02 50 1012.2
20260902154423 65 278 2.0 4.0 0.00 0.03 0.02 54 1012.2
20260902153504 64 264 2.0 2.0 0.00 0.03 0.02 59 1012.0
20260902152424 64 269 2.0 2.0 0.00 0.03 0.02 64 1012.0
20260902151423 63 274 1.0 1.0 0.00 0.03 0.02 63 1011.7
20260902150424 63 296 1.0 2.0 0.00 0.03 0.02 65 1011.3
20260902145424 62 0.0 0.0 0.00 0.03 0.02 73 1010.9
20260902144424 62 0.0 0.0 0.00 0.03 0.02 70 1011.1
20260902143425 62 0.0 0.0 0.00 0.03 0.02 70 1011.1
20260902142424 62 309 0.0 0.0 0.00 0.03 0.02 72 1011.4
20260902141424 61 0.0 0.0 0.00 0.03 0.02 77 1011.4
20260902140425 61 0.0 0.0 0.00 0.03 0.02 78 1011.4
20260902135425 61 0.0 0.0 0.00 0.03 0.02 77 1011.1
20260902134426 61 0.0 0.0 0.00 0.03 0.02 78 1010.7
20260902133425 61 0.0 0.0 0.02 0.03 0.02 78 1010.4
20260902132425 61 0.0 0.0 0.02 0.03 0.02 75 1010.6
20260902131425 61 0.0 0.0 0.02 0.03 0.02 77 1010.4
20260902130445 62 0.0 0.0 0.02 0.03 0.02 74 1010.4
20260902125426 62 0.0 0.0 0.02 0.03 0.02 73 1010.1
20260902124426 62 0.0 0.0 0.01 0.03 0.01 72 1010.1
20260902123426 62 0.0 0.0 0.00 0.01 0.00 60 1009.8
20260902122417 62 0.0 0.0 0.00 0.01 0.00 63 1009.7
20260902121418 62 0.0 0.0 0.00 0.01 0.00 62 1009.6
20260902120417 62 0.0 0.0 0.00 0.01 0.00 72 1009.6
20260902115418 61 0.0 0.0 0.00 0.01 0.00 73 1009.7
20260902114418 61 0.0 0.0 0.00 0.01 0.00 83 1009.9
20260902113418 61 0.0 0.0 0.00 0.01 0.00 83 1009.9
20260902112419 61 0.0 0.0 0.00 0.01 0.00 85 1009.7
20260902111419 61 0.0 0.0 0.00 0.01 0.00 84 1009.5
20260902110419 61 0.0 0.0 0.00 0.01 0.00 83 1009.2
20260902105419 61 0.0 0.0 0.00 0.01 0.00 83 1009.1
20260902104420 61 0.0 0.0 0.00 0.01 0.00 81 1009.1
20260902103419 61 0.0 0.0 0.00 0.01 0.00 81 1009.1
20260902102420 61 0.0 0.0 0.00 0.01 0.00 83 1009.0
20260902101420 61 0.0 0.0 0.00 0.01 0.00 81 1009.0
20260902100420 61 114 0.0 1.0 0.00 0.01 0.00 83 1008.8
20260902095420 61 0.0 0.0 0.00 0.01 0.00 83 1008.7
20260902094420 61 0.0 0.0 0.00 0.01 0.00 81 1008.7
20260902093421 61 0.0 0.0 0.00 0.01 0.00 81 1008.7
20260902092421 60 0.0 0.0 0.00 0.01 0.00 81 1008.6
20260902091441 61 0.0 0.0 0.00 0.01 0.00 80 1008.6
20260902090421 61 0.0 0.0 0.00 0.01 0.00 80 1008.4
20260902085422 62 0.0 0.0 0.00 0.01 0.00 78 1008.3
20260902084422 61 0.0 0.0 0.00 0.01 0.00 78 1008.3
20260902083422 62 0.0 0.0 0.00 0.01 0.00 78 1008.2
20260902082422 62 0.0 0.0 0.00 0.01 0.00 77 1008.1
20260902081417 62 0.0 0.0 0.00 0.01 0.00 77 1008.1
20260902080417 62 0.0 0.0 0.00 0.01 0.00 77 1007.9
20260902075437 63 0.0 0.0 0.00 0.01 0.00 77 1007.8
20260902074418 63 0.0 0.0 0.00 0.01 0.00 75 1007.8
20260902073417 63 0.0 0.0 0.00 0.01 0.00 75 1007.5
20260902072416 64 0.0 0.0 0.00 0.01 0.00 74 1007.4
20260902071416 64 0 0.0 0.0 0.00 0.01 0.00 73 1007.4
20260902070417 65 0.0 0.0 0.00 0.01 0.00 72 1007.4